Regional Weather Roundup
Issued by NWS

Home | Current Version | Previous Version | Graphics & Text | Print | Product List | Glossary On
Versions: 1 2 3 4 5 6 7 8 9 10 11 12 13 14 15 16 17 18 19 20 21 22 23 24 25 26 27 28 29 30 31 32 33 34 35 36 37 38 39 40 41 42 43 44 45 46 47 48 49 50
000
ASUS44 KEWX 242303
RWRTX
SOUTH TEXAS REGIONAL WEATHER ROUNDUP
NATIONAL WEATHER SERVICE AUSTIN/SAN ANTONIO TX
600 PM CDT FRI MAR 24 2017

NOTE: "FAIR" INDICATED FEW OR NO CLOUDS BELOW 12,000 FEET WITH NO
SIGNIFICANT WEATHER AND/OR OBSTRUCTIONS TO VISIBILITY.

* - THESE STATIONS ARE NOT NWS OR FAA STATIONS...AND ARE NOT SUBJECT
    TO NWS AND FAA QUALITY CONTROL.

TXZ171-172-183>190-250000-
TEXAS HILL COUNTRY AND EDWARDS PLATEAU

CITY           SKY/WX    TMP DP  RH WIND       PRES   REMARKS
JUNCTION       SUNNY     81  32  17 W17G28    29.87S
*LLANO         SUNNY     82  28  14 SW17G23   29.87F
BURNET         SUNNY     80  39  23 SW9G23    29.86F
*HORSESHOE BAY SUNNY     83  41  22 SW9       29.84F
*KERRVILLE     SUNNY     82  22  11 SW14G20   29.88F
*FREDERICKSBRG SUNNY     79  23  12 W13G21    29.88S
*ROCKSPRINGS   SUNNY     79  27  14 W18G26    29.92F
*BOERNE STAGE  SUNNY     79  34  19 SW9G16    29.89S
*CASTROVILLE   SUNNY     85  25  11 W14       29.89S
HONDO          SUNNY     85  28  12 W13       29.88S
*UVALDE        SUNNY     82  31  15 SW8       29.88F
DEL RIO        SUNNY     87  18   8 NW20G28   29.85S
LAUGHLIN AFB   SUNNY     87  24  10 NW21G28   29.85F
CARRIZO SPRGS  SUNNY     88  32  13 N5        29.85F
*EAGLE PASS    CLEAR     86  30  13 CALM      29.86F
$$

TXZ173-191>194-202-209-217>225-228-250000-
CENTRAL AND SOUTH CENTRAL TEXAS

CITY           SKY/WX    TMP DP  RH WIND       PRES   REMARKS
GEORGETOWN     SUNNY     81  55  41 SW10G23   29.81F
AUSTIN/BERGSTM MOSUNNY   82  61  48 S17G24    29.83S
AUSTIN/MABRY   SUNNY     81  60  48 S8        29.84S
*AUSTIN/EXEC     N/A    N/A N/A N/A MISG        N/A
*LAGO VISTA    SUNNY     83  33  16 W14G23    29.85S
SAN MARCOS     MOSUNNY   81  61  50 SW17      29.85F
NEW BRAUNFELS  SUNNY     84  57  39 SW16      29.83F
RANDOLPH AFB   SUNNY     82  55  39 S16       29.85F
PT SAN ANTONIO SUNNY     83  42  24 S9        29.85F
SAN ANTONIO    MOSUNNY   83  42  23 SW17      29.86F
STINSON FIELD  SUNNY     84  54  35 SW10      29.84F
*PLEASANTON    SUNNY     83  56  39 S5        29.87S
*LA GRANGE     TSTM      73  70  92 S7        29.86R
*GIDDINGS      PTSUNNY   72  67  84 S7        29.87S
*GONZALES      MOSUNNY   79  71  76 S14       29.85F
$$

TXZ163>164-176>182-195>201-210>213-226-227-235-250000-
SOUTHEAST TEXAS

CITY           SKY/WX    TMP DP  RH WIND       PRES   REMARKS
COLLEGE STN    PTSUNNY   73  66  78 S20G33    29.85F
*BRYAN         CLOUDY    71  66  84 S13G22    29.88R
*CALDWELL      NOT AVBL
*CROCKETT      PTSUNNY   73  63  68 S18G26    29.89S
*BRENHAM       CLOUDY    74  66  77 S9G24     29.88F
HUNTSVILLE     PTSUNNY   72  64  76 S13G25    29.88R
CONROE         LGT RAIN  70  66  87 S12       29.91F
HOUSTON BUSH   CLOUDY    75  65  70 S14G29    29.92F
HOUSTON HOBBY  CLOUDY    75  67  76 S22G36    29.92F
*HOUSTON SW AP CLOUDY    75  67  76 SE10G18   29.93F
PEARLAND       CLOUDY    77  67  71 S14G24    29.94F
HOUSTON HOOKS  CLOUDY    75  63  66 S14G23    29.91F
ELLINGTON FLD  NOT AVBL
SUGAR LAND     CLOUDY    77  67  71 S16G25    29.92S
*HOUSTON EXEC  MOSUNNY   77  66  69 S24G31    29.90F
*CLEVELAND MUN   N/A     74  66  74 S20G28    29.93F
*WHARTON       MOSUNNY   76  64  66 S22G35    29.92S
*COLUMBUS      CLOUDY    74  66  74 S23G31    29.89F
*EAGLE LAKE    CLOUDY    77  67  72 S25G35    29.88F
$$

TXZ214>216-236>238-250000-
THE UPPER TEXAS COAST

CITY           SKY/WX    TMP DP  RH WIND       PRES   REMARKS
*ORANGE        CLOUDY    75  68  78 S21G31    30.00F
PORT ARTHUR    LGT RAIN  76  66  71 S24G35    29.97F
GALVESTON      CLOUDY    75  70  84 SE17      29.96S
ANGLETON       CLOUDY    76  69  79 S22G30    29.93F
*BAY CITY      CLOUDY    76  69  80 S18       29.93S
PALACIOS       CLOUDY    76  68  76 S20G33    29.90F
$$

TXZ229>234-239>247-250000-
TEXAS COASTAL BEND AND RIO GRANDE PLAINS

CITY           SKY/WX    TMP DP  RH WIND       PRES   REMARKS
VICTORIA       CLOUDY    77  67  71 S20G30    29.89F
*BEEVILLE      CLOUDY    83  70  65 S17G25    29.87S
ROCKPORT       SUNNY     77  67  71 S13G26    29.88F
*PORT ARANSAS  SUNNY     74  68  81 S18G24    29.89S
*PORT LAVACA   CLOUDY    77  69  76 S25G33    29.90S
*INGLESIDE     SUNNY     79  69  71 S26G33    29.88F
CORPUS CHRISTI MOSUNNY   81  67  62 S31G39    29.86F
CORPUS NAS     MOSUNNY   78  67  68 S25G37    29.87F
*ROBSTOWN      SUNNY     83  68  59 SE25      29.87S
ALICE          MOSUNNY   89  59  36 VRB6      29.84F
KINGSVILLE NAS NOT AVBL
COTULLA        SUNNY     89  47  23 CALM      29.86S
*FAITH RANCH   SUNNY     88  37  16 SW5       29.86S
LAREDO         SUNNY     89  60  37 NE10      29.86F
$$

TXZ248>255-250000-
DEEP SOUTH TEXAS

CITY           SKY/WX    TMP DP  RH WIND       PRES   REMARKS
BROWNSVILLE    SUNNY     82  66  58 S21G31    29.91F
PORT ISABEL    SUNNY     83  66  56 SE22G31   29.90F
*SOUTH PADRE   NOT AVBL
HARLINGEN      SUNNY     84  64  50 S23G31    29.88F
*HEBBRONVILLE  SUNNY     85  57  37 CALM      29.88S
MCALLEN        PTSUNNY   86  68  54 SE24G31   29.86F
*WESLACO       SUNNY     84  65  53 S18G25    29.87F
FALFURRIAS     MOSUNNY   87  65  48 S14       29.84F
EDINBURG       SUNNY     86  65  49 S15G21    29.87S
*ZAPATA        SUNNY     89  54  30 NE3       29.84F
$$

TXZ213>215-236>238-242>244-246-247-251-254-255-250000-
CMAN STATIONS

STATION/POSITION TIME  TEMP    WIND        PRES    WAVE
                       AIR SEA DIR/SP/G            HT/PER
                 (UTC) (F)     (DEG/KT/KT) (MB)    (FT/S)
SABINE PASS      2224   73 73  150/ 18/ 25 1016.8
SEA RIM ST PARK  2200   73     150/ 18/ 21 1016.0
NORTH JETTY/GLS  2224   76 71  140/ 20/ 23   N/A
EAGLE POINT      2224   74 75  180/ 22/ 24 1014.3
MORGANS POINT    2224   74 74  150/ 14/ 19 1014.3
MISSION/ARANSAS  2200   75                 1013.0
PORT O`CONNOR    2224   73     150/ 20/ 25 1012.5
PORT ARANSAS     2200   72 72  140/ 21/ 25 1012.3
MALAQUITE BEACH  2224   72 72  140/ 22/ 25 1012.5
BAFFIN BAY       2224   76 80  120/ 23/ 29 1012.0
PORT ISABEL      2224   78 73  150/ 17/ 21 1013.3
$$

GMZ080-GMZ150>470-250000-
OFFSHORE BUOY REPORTS

STATION/POSITION TIME  TEMP    WIND        PRES    WAVE
                       AIR SEA DIR/SP/G            HT/PER
                 (UTC) (F)     (DEG/KT/KT) (MB)    (FT/S)
20 E GALVESTON   2150   72 71  150/ 19/ 23 1014.6    6/ 8
90 E PT ARANSAS  2150   75 72  160/ 16/ 17 1014.8    9/ 8
35 NE PT MANSFLD 2150   73     160/ 10/ 12 1013.5    9/ 8
200 E PT ISABEL  2150   76 76  160/ 21/ 25 1015.9    9/ 8
$$




USA.gov is the U.S. government's official web portal to all federal, state and local government web resources and services.